| time (UTC) | temp F | wind direction | speed knots | gust knots | rain 1hr in | rain 24hr in | rain mn in | humidity % | barometer mb |
| 20260505074531 | 53 | 222 | 0.0 | 1.7 | 0.00 | 0.00 | 0.00 | 54 | 1008.9 |
| 20260505073030 | 53 | 222 | 0.9 | 2.6 | 0.00 | 0.00 | 0.00 | 53 | 1008.9 |
| 20260505071527 | 54 | 222 | 0.0 | 1.7 | 0.00 | 0.00 | 0.00 | 52 | 1008.9 |
| 20260505070027 | 54 | 222 | 0.0 | 0.9 | 0.00 | 0.00 | 0.00 | 51 | 1009.1 |
| 20260505064525 | 54 | 222 | 0.0 | 0.9 | 0.00 | 0.00 | 0.00 | 51 | 1009.2 |
| 20260505063023 | 55 | 222 | 0.0 | 1.7 | 0.00 | 0.00 | 0.00 | 51 | 1009.1 |
| 20260505061522 | 55 | 221 | 0.0 | 1.7 | 0.00 | 0.00 | 0.00 | 49 | 1009.3 |
| 20260505060019 | 56 | 221 | 0.0 | 1.7 | 0.00 | 0.00 | 0.00 | 49 | 1009.4 |
| 20260505054522 | 56 | 221 | 0.0 | 1.7 | 0.00 | 0.00 | 0.00 | 48 | 1009.3 |
| 20260505053022 | 57 | 221 | 0.0 | 3.5 | 0.00 | 0.00 | 0.00 | 46 | 1009.4 |
| 20260505051515 | 57 | 210 | 0.0 | 2.6 | 0.00 | 0.00 | 0.00 | 46 | 1009.3 |
| 20260505041509 | 56 | 360 | 0.0 | 2.6 | 0.00 | 0.00 | 0.00 | 47 | 1009.1 |
| 20260505040018 | 56 | 360 | 0.0 | 1.7 | 0.00 | 0.00 | 0.00 | 46 | 1009.0 |
| 20260505034506 | 56 | 360 | 0.0 | 1.7 | 0.00 | 0.00 | 0.00 | 46 | 1009.1 |
| 20260505033012 | 56 | 360 | 0.0 | 0.9 | 0.00 | 0.00 | 0.00 | 46 | 1009.0 |
| 20260505031505 | 57 | 360 | 0.0 | 1.7 | 0.00 | 0.00 | 0.00 | 45 | 1009.1 |
| 20260505030013 | 57 | 360 | 0.0 | 1.7 | 0.00 | 0.00 | 0.00 | 45 | 1009.3 |
| 20260505024505 | 58 | 210 | 0.9 | 1.7 | 0.00 | 0.00 | 0.00 | 43 | 1009.4 |
| 20260505023004 | 59 | 209 | 0.0 | 0.0 | 0.00 | 0.00 | 0.00 | 42 | 1009.4 |
| 20260505021504 | 60 | 210 | 0.0 | 1.7 | 0.00 | 0.00 | 0.00 | 40 | 1009.5 |
| 20260505020007 | 60 | 224 | 0.0 | 1.7 | 0.00 | 0.00 | 0.00 | 40 | 1009.4 |
| 20260505014504 | 61 | 224 | 0.0 | 1.7 | 0.00 | 0.00 | 0.00 | 38 | 1009.4 |
| 20260505013003 | 62 | 224 | 0.0 | 1.7 | 0.00 | 0.00 | 0.00 | 37 | 1009.3 |
| 20260505011502 | 62 | 224 | 0.0 | 1.7 | 0.00 | 0.00 | 0.00 | 36 | 1009.3 |
| 20260505010001 | 63 | 222 | 0.9 | 2.6 | 0.00 | 0.00 | 0.00 | 35 | 1009.1 |
| 20260505004602 | 64 | 222 | 1.7 | 3.5 | 0.00 | 0.00 | 0.00 | 34 | 1009.0 |
| 20260505003059 | 64 | 213 | 0.9 | 2.6 | 0.00 | 0.00 | 0.00 | 33 | 1008.8 |
| 20260505003002 | 65 | 213 | 0.9 | 2.6 | 0.00 | 0.00 | 0.00 | 33 | 1008.7 |
| 20260505001600 | 65 | 225 | 0.9 | 5.2 | 0.00 | 0.00 | 0.00 | 31 | 1008.6 |
| 20260505000108 | 66 | 208 | 2.6 | 7.0 | 0.00 | 0.00 | 0.00 | 30 | 1008.6 |
| 20260504234700 | 66 | 188 | 0.9 | 5.2 | 0.00 | 0.00 | 0.00 | 30 | 1008.4 |
| 20260504233058 | 67 | 212 | 1.7 | 7.0 | 0.00 | 0.00 | 0.00 | 29 | 1008.2 |
| 20260504231556 | 67 | 217 | 3.5 | 10.4 | 0.00 | 0.00 | 0.00 | 28 | 1008.1 |
| 20260504230056 | 68 | 225 | 3.5 | 7.8 | 0.00 | 0.00 | 0.00 | 27 | 1008.0 |
| 20260504224555 | 69 | 230 | 4.3 | 9.6 | 0.00 | 0.00 | 0.00 | 26 | 1007.9 |
| 20260504223055 | 70 | 207 | 4.3 | 7.8 | 0.00 | 0.00 | 0.00 | 26 | 1007.8 |
| 20260504221552 | 70 | 228 | 3.5 | 10.4 | 0.00 | 0.00 | 0.00 | 25 | 1007.9 |
| 20260504220100 | 70 | 242 | 2.6 | 8.7 | 0.00 | 0.00 | 0.00 | 27 | 1008.0 |
| 20260504214555 | 70 | 216 | 2.6 | 7.8 | 0.00 | 0.00 | 0.00 | 27 | 1008.0 |
| 20260504213107 | 70 | 198 | 3.5 | 7.8 | 0.00 | 0.00 | 0.00 | 26 | 1008.2 |
| 20260504211547 | 71 | 212 | 3.5 | 8.7 | 0.00 | 0.00 | 0.00 | 26 | 1008.3 |
| 20260504210046 | 69 | 243 | 3.5 | 10.4 | 0.00 | 0.00 | 0.00 | 28 | 1008.4 |
| 20260504204545 | 70 | 224 | 3.5 | 9.6 | 0.00 | 0.00 | 0.00 | 27 | 1008.6 |
| 20260504203043 | 71 | 200 | 1.7 | 11.3 | 0.00 | 0.00 | 0.00 | 25 | 1008.7 |
| 20260504201540 | 71 | 236 | 4.3 | 11.3 | 0.00 | 0.00 | 0.00 | 25 | 1009.0 |
| 20260504200038 | 71 | 225 | 3.5 | 13.0 | 0.00 | 0.00 | 0.00 | 27 | 1009.0 |
| 20260504194535 | 69 | 224 | 3.5 | 13.9 | 0.00 | 0.00 | 0.00 | 29 | 1009.1 |
| 20260504193048 | 70 | 205 | 5.2 | 13.0 | 0.00 | 0.00 | 0.00 | 26 | 1009.4 |
| 20260504191534 | 70 | 238 | 4.3 | 12.2 | 0.00 | 0.00 | 0.00 | 27 | 1009.6 |
| 20260504190034 | 69 | 254 | 5.2 | 8.7 | 0.00 | 0.00 | 0.00 | 28 | 1009.6 |
| 20260504184528 | 70 | 211 | 3.5 | 8.7 | 0.00 | 0.00 | 0.00 | 28 | 1009.8 |
| 20260504183026 | 69 | 193 | 4.3 | 13.0 | 0.00 | 0.00 | 0.00 | 29 | 1010.1 |
| 20260504181523 | 68 | 223 | 6.1 | 15.6 | 0.00 | 0.00 | 0.00 | 27 | 1010.1 |
| 20260504180020 | 67 | 209 | 3.5 | 15.6 | 0.00 | 0.00 | 0.00 | 29 | 1010.1 |
| 20260504174520 | 68 | 211 | 3.5 | 7.8 | 0.00 | 0.00 | 0.00 | 26 | 1010.4 |
| 20260504173015 | 66 | 227 | 4.3 | 14.8 | 0.00 | 0.00 | 0.00 | 32 | 1010.5 |
| 20260504171511 | 67 | 211 | 5.2 | 9.6 | 0.00 | 0.00 | 0.00 | 30 | 1010.8 |
| 20260504160104 | 64 | 200 | 3.5 | 8.7 | 0.00 | 0.00 | 0.00 | 27 | 1011.7 |
| 20260504081535 | 42 | 360 | 0.9 | 1.7 | 0.00 | 0.00 | 0.00 | 50 | 1014.1 |